Regional Weather Roundup
Issued by NWS

Home | Current Version | Previous Version | Text Only | Print | Product List | Glossary On
Versions: 1 2 3 4 5 6 7 8 9 10 11 12 13 14 15 16 17 18 19 20 21 22 23 24 25 26 27 28 29 30 31 32 33 34 35 36 37 38 39 40 41 42 43 44 45 46 47 48 49 50
000
ASUS45 KPSR 061400
RWRAZ

ARIZONA REGIONAL HOURLY WEATHER ROUNDUP
NATIONAL WEATHER SERVICE PHOENIX AZ
700 AM MST WED MAY 06 2015

NOTE: FAIR INDICATES FEW OR NO CLOUDS BELOW 12,000 FEET WITH NO
SIGNIFICANT WEATHER AND/OR OBSTRUCTIONS TO VISIBILITY.

AZZ001>003-036-061500-
NORTHWEST ARIZONA

CITY           SKY/WX    TMP DP  RH WIND       PRES   REMARKS
KINGMAN        SUNNY     62  34  35 S7        29.83F
$$

AZZ004>008-015-016-018-061500-
NORTH CENTRAL ARIZONA

CITY           SKY/WX    TMP DP  RH WIND       PRES   REMARKS
GRAND CANYON   CLOUDY    44  40  85 CALM      29.98S
WILLIAMS       PTSUNNY   45  39  81 CALM      30.05S
PRESCOTT       MOSUNNY   51  39  63 SE6       29.94S
FLAGSTAFF      NOT AVBL
PAYSON         MOSUNNY   54  46  76 CALM      29.98S
PAGE           MOSUNNY   55  49  80 SE3       29.87R
$$

AZZ009>014-017-061500-
NORTHEAST ARIZONA

CITY           SKY/WX    TMP DP  RH WIND       PRES   REMARKS
WINSLOW        NOT AVBL
SAINT JOHNS    SUNNY     55  43  63 CALM      29.97S
WINDOW ROCK    CLOUDY    47  42  83 SW7       30.00R
$$

AZZ023-061500-
GREATER PHOENIX AREA

CITY           SKY/WX    TMP DP  RH WIND       PRES   REMARKS
PHOENIX        MOSUNNY   70  45  40 SE7       29.80R
GLENDALE       PTSUNNY   70  48  46 CALM      29.82R
LUKE AFB       MOSUNNY   69  50  51 NW1       29.80R
DEER VALLEY    SUNNY     65  50  58 E6        29.82R
SCOTTSDALE     SUNNY     67  50  54 CALM      29.83R
MESA-FALCON    PTSUNNY   68  45  42 E9        29.82F
MESA-GATEWAY   PTSUNNY   64  48  55 E5        29.84S
CHANDLER       MOSUNNY   66  50  55 CALM      29.82R
$$

AZZ027-028-061500-
SOUTHWEST MARICOPA COUNTY AND PINAL COUNTY

CITY           SKY/WX    TMP DP  RH WIND       PRES   REMARKS
CASA GRANDE    MOSUNNY   66  45  45 CALM      29.82S
$$

AZZ503-504-507>509-061500-
SOUTHEAST ARIZONA

CITY           SKY/WX    TMP DP  RH WIND       PRES   REMARKS
TUCSON         PTSUNNY   64  46  52 SE8       29.90S
RYAN FIELD       N/A     61  50  67 CALM      29.89F
NOGALES        PTSUNNY   56  41  57 CALM      29.94S
SIERRA VISTA   MOSUNNY   58  36  44 VRB1      29.98S
SAFFORD        PTSUNNY   58  44  60 S3        29.90S
$$

AZZ020-021-025-026-031-061500-
SOUTHWEST ARIZONA

CITY           SKY/WX    TMP DP  RH WIND       PRES   REMARKS
YUMA           NOT AVBL
$$

CAZ031-033-041-043-047-048-061-061500-
SOUTHERN CALIFORNIA

CITY           SKY/WX    TMP DP  RH WIND       PRES   REMARKS
DOWNTOWN L.A.  CLOUDY    60  49  66 CALM      29.90S
L.A. AIRPORT   CLOUDY    59  50  72 SE3       29.91R
SAN DIEGO      CLOUDY    62  45  53 S6        29.92S
BURBANK        CLOUDY    58  48  69 SE5       29.89S
ONTARIO        CLOUDY    56  46  69 W7        29.90S
RIVERSIDE      CLOUDY    57  48  72 CALM      29.91R
PALM SPRINGS   SUNNY     65  42  43 W12       29.78R
EL CENTRO NAS  MOSUNNY   65  41  41 W17       29.78R
IMPERIAL       MOSUNNY   64  43  46 W13       29.76R
BLYTHE         MOSUNNY   68  39  34 S9        29.75R
$$

NVZ020-UTZ003-061500-
SOUTHERN NEVADA-UTAH

CITY           SKY/WX    TMP DP  RH WIND       PRES   REMARKS
LAS VEGAS      NOT AVBL
SALT LAKE CITY PTSUNNY   55  49  80 S8        29.81S
$$

NMZ009-TXZ055-061500-
NEW MEXICO-WEST TEXAS

CITY           SKY/WX    TMP DP  RH WIND       PRES   REMARKS
ALBUQUERQUE    PTSUNNY   54  45  71 S6        29.96R
EL PASO        MOSUNNY   63  41  44 S8        29.95R
$$


........................KEY........................
SKY/WX - SKY CONDITION/WEATHER
TMP    - TEMPERATURE IN FAHRENHEIT
DP     - DEW POINT IN FAHRENHEIT
RH     - RELATIVE HUMIDITY IN PERCENT
WIND   - DIRECTION AND SPEED IN MILES PER HOUR (MPH)
VRB    - VARIABLE WIND DIRECTION
PRES   - MEAN SEA LEVEL PRESSURE IN INCHES OF MERCURY
         F - FALLING PRESSURE   R - RISING PRESSURE
         S - STEADY PRESSURE
VSB    - VISIBILITY IN MILES
HX     - HEAT INDEX IN FAHRENHEIT
WCI    - WIND CHILL INDEX IN FAHRENHEIT
TC     - TEMPERATURE IN CELSIUS WHICH IS ALSO KNOWN AS
         TEMPERATURE IN CENTIGRADE
AFB    - AIR FORCE BASE
         LUKE AFB IS LUKE AIR FORCE BASE
         DAVIS-MONTHAN IS DAVIS-MONTHAN AIR FORCE BASE
NAS    - NAVAL AIR STATION
         EL CENTRO NAS IS EL CENTRO NAVAL AIR STATION
N/A    - NOT AVAILABLE



USA.gov is the U.S. government's official web portal to all federal, state and local government web resources and services.